Location: Mountain_View
(35.6670°N, 81.4000°W)
Time: 12:27:46
(UTC-05:00)

Amateur Radio Satellites - All Passes

Search period start: 24 January 2017 11:57
Search period end: 25 January 2017 11:57
Location: Mountain_View, 35.6670°N, 81.4000°W

Satellite Date Start Highest point End Downlink Frequencies (MHz)
Time Altitude Azimuth
VELOX 1 24 Jan 11:58:09 12:01:58 29° 97° (E) 12:05:45 145.980
NANOSAT C BR1 24 Jan 12:02:25 12:06:13 34° 262° (W) 12:10:02 145.865
ESTCUBE 1 24 Jan 12:05:38 12:10:09 73° 285° (WNW) 12:14:38 437.505/2401.250
UKube-1 24 Jan 12:08:00 12:09:10 11° 92° (E) 12:10:20 .
JAS-2 24 Jan 12:09:34 12:12:48 16° 270° (W) 12:16:11 435.910
BUGSAT 1 24 Jan 12:10:35 12:14:38 86° 73° (ENE) 12:18:40 437.445
Oscar 19 24 Jan 12:11:53 12:15:59 24° 67° (ENE) 12:20:06 437.125/150
BY70-1 24 Jan 12:15:40 12:17:27 15° 292° (WNW) 12:19:10 436.1900
DX 1 24 Jan 12:15:57 12:19:12 20° 95° (E) 12:22:25 434.975-435.025
CUBEBUG 1 24 Jan 12:32:43 12:36:58 61° 285° (WNW) 12:41:12 437.445
AO-85 24 Jan 12:48:53 12:53:42 73° 117° (ESE) 12:58:08 145.980
JUGNU 24 Jan 12:54:06 12:57:18 15° 173° (S) 13:00:29 437.505
AO-7 24 Jan 12:56:27 12:58:44 11° 48° (NE) 13:01:02 29.400- 29.500
50 SAT 24 Jan 13:00:18 13:03:46 53° 285° (WNW) 13:07:11 437.505
Gurwin Techsat 1B 24 Jan 13:00:49 13:05:41 38° 70° (ENE) 13:10:33 435.225
AISAT 24 Jan 13:01:03 13:05:16 46° 287° (WNW) 13:09:26 437.250
TISAT 1 24 Jan 13:06:41 13:09:19 16° 94° (E) 13:11:57 437.305
DANDE 24 Jan 13:26:13 13:31:50 20° 67° (ENE) 13:37:28 436.750
SPROUT 24 Jan 13:29:31 13:33:14 30° 289° (WNW) 13:36:57 437.525
CUSAT 1 24 Jan 13:33:20 13:41:01 52° 76° (ENE) 13:47:41 437.405
VELOX 1 24 Jan 13:34:54 13:38:13 21° 291° (WNW) 13:41:31 145.980
UKube-1 24 Jan 13:41:16 13:45:28 52° 286° (WNW) 13:49:37 .
Cosmos 2491 24 Jan 13:44:14 13:52:58 71° 267° (W) 14:01:43 435.465 / 435.565
YUBILEINY 24 Jan 13:44:19 13:52:52 58° 91° (E) 14:01:28 435.215
AIST 1 24 Jan 13:44:23 13:48:45 88° 288° (WNW) 13:53:06
Oscar 19 24 Jan 13:50:19 13:55:03 36° 262° (W) 13:59:50 437.125/150
DX 1 24 Jan 13:51:37 13:55:21 29° 290° (WNW) 13:59:03 434.975-435.025
Cosmos 2504 24 Jan 14:04:32 14:12:29 43° 89° (E) 14:20:00 435.465 / 435.565
BEESAT 24 Jan 14:18:48 14:22:24 21° 95° (E) 14:25:59 436.000
SWISSCUBE 24 Jan 14:20:40 14:24:36 25° 96° (E) 14:28:30 437.505
AO-85 24 Jan 14:32:27 14:34:29 13° 312° (NW) 14:36:28 145.980
SRMSAT 24 Jan 14:32:45 14:35:13 13° 168° (SSE) 14:37:41 437.500
BEESAT 3 24 Jan 14:38:13 14:41:32 28° 113° (ESE) 14:44:54 437.485
O/OREOS (USA 219) 24 Jan 14:40:16 14:42:48 15° 58° (ENE) 14:45:20 437.305
TISAT 1 24 Jan 14:41:14 14:45:01 34° 288° (WNW) 14:48:47 437.305
Gurwin Techsat 1B 24 Jan 14:41:32 14:45:40 23° 265° (W) 14:49:50 435.225
AO-7 24 Jan 14:41:37 14:49:45 60° 68° (ENE) 14:57:56 29.400- 29.500
JUGNU 24 Jan 14:42:03 14:45:31 16° 183° (S) 14:49:01 437.505
ITAMSAT 1 24 Jan 14:42:35 14:47:42 71° 75° (ENE) 14:52:52 435.822/435.867
DANDE 24 Jan 15:07:06 15:15:22 86° 264° (W) 15:23:33 436.750
MOZHAYETS 4 24 Jan 15:11:06 15:14:47 23° 95° (E) 15:18:25
CUSAT 1 24 Jan 15:16:03 15:22:23 28° 275° (W) 15:28:03 437.405
ITUPSAT 1 24 Jan 15:23:57 15:28:47 78° 285° (WNW) 15:33:35 437.325
BEESAT 2 24 Jan 15:32:30 15:36:18 50° 116° (ESE) 15:40:09 435.950
SO-50 24 Jan 15:40:11 15:44:22 36° 55° (NE) 15:48:30 436.795
YUBILEINY 24 Jan 15:42:53 15:50:05 28° 289° (WNW) 15:57:21 435.215
Cosmos 2491 24 Jan 15:47:29 15:48:07 10° 285° (WNW) 15:48:44 435.465 / 435.565
BEESAT 24 Jan 15:55:52 16:00:12 34° 289° (WNW) 16:04:30 436.000
M-CUBED/EXP-1 PRIME 24 Jan 15:57:14 15:58:43 13° 99° (E) 16:00:12 437.505
Cosmos 2504 24 Jan 15:58:04 16:05:48 36° 284° (WNW) 16:13:11 435.465 / 435.565
SWISSCUBE 24 Jan 15:58:10 16:02:19 29° 290° (WNW) 16:06:26 437.505
CUBESAT XI-V 24 Jan 16:10:18 16:12:42 14° 92° (E) 16:15:04 437.345
GOMX 1 24 Jan 16:11:45 16:15:17 18° 68° (ENE) 16:18:42 467.674
BEESAT 3 24 Jan 16:16:10 16:19:08 21° 308° (NW) 16:22:08 437.485
O/OREOS (USA 219) 24 Jan 16:18:07 16:22:27 48° 254° (WSW) 16:26:49 437.305
SRMSAT 24 Jan 16:19:53 16:23:37 17° 178° (S) 16:27:21 437.500
ITAMSAT 1 24 Jan 16:26:08 16:27:37 11° 269° (W) 16:29:06 435.822/435.867
AUBIESAT-1 24 Jan 16:28:39 16:31:30 27° 103° (ESE) 16:34:22 437.475
BRITE-PL 24 Jan 16:29:04 16:34:44 69° 76° (ENE) 16:40:16 437.365/2234.400
CUTE-I 24 Jan 16:30:14 16:31:47 11° 61° (ENE) 16:33:20 437.470
JUGNU 24 Jan 16:32:13 16:33:44 11° 193° (SSW) 16:35:15 437.505
AO-7 24 Jan 16:36:07 16:42:51 27° 264° (W) 16:49:40 29.400- 29.500
MOZHAYETS 4 24 Jan 16:47:52 16:51:53 30° 289° (WNW) 16:55:55
DANDE 24 Jan 16:52:23 16:57:01 16° 279° (W) 17:01:38 436.750
KKS-1 24 Jan 16:53:15 16:57:42 88° 293° (WNW) 17:02:07 437.445
LilacSat-2 24 Jan 16:54:32 16:56:34 14° 68° (ENE) 16:58:37 437.200
HORYU 2 24 Jan 16:57:33 17:01:51 56° 74° (ENE) 17:06:10 437.375
NOAA 15 24 Jan 17:03:55 17:08:14 26° 67° (ENE) 17:12:35 137.62
Cubesat XI-IV 24 Jan 17:11:34 17:16:04 29° 68° (ENE) 17:20:36 437.490
BEESAT 2 24 Jan 17:12:19 17:14:22 14° 312° (NW) 17:16:25 435.950
SO-50 24 Jan 17:21:21 17:24:32 19° 250° (WSW) 17:27:42 436.795
M-CUBED/EXP-1 PRIME 24 Jan 17:30:32 17:33:15 24° 293° (WNW) 17:35:56 437.505
STARS 24 Jan 17:33:24 17:37:45 70° 286° (WNW) 17:42:06 437.465
CUBESAT XI-V 24 Jan 17:45:48 17:50:18 48° 286° (WNW) 17:54:45 437.345
GOMX 1 24 Jan 17:47:47 17:52:58 49° 260° (W) 17:57:57 467.674
NOAA 18 24 Jan 17:53:19 17:58:25 41° 70° (ENE) 18:03:30 137.9125
DOVE 4 24 Jan 18:03:03 18:08:01 85° 260° (W) 18:12:43 437.250
AUBIESAT-1 24 Jan 18:04:17 18:05:41 12° 297° (WNW) 18:07:06 437.475
CUTE-I 24 Jan 18:05:46 18:11:04 83° 257° (WSW) 18:16:25 437.470
Cosmos 2499 24 Jan 18:06:37 18:12:19 21° 84° (E) 18:17:45 435.465 / 435.565
SRMSAT 24 Jan 18:08:52 18:12:02 15° 189° (S) 18:15:12 437.500
BRITE-PL 24 Jan 18:10:37 18:13:31 14° 269° (W) 18:16:25 437.365/2234.400
AIST 2 24 Jan 18:11:50 18:15:46 48° 115° (ESE) 18:19:47 435.215
LilacSat-2 24 Jan 18:27:10 18:30:33 32° 263° (W) 18:33:58 437.200
GONETS M04 24 Jan 18:34:19 18:41:14 27° 83° (E) 18:48:09
HORYU 2 24 Jan 18:37:43 18:38:41 11° 268° (W) 18:39:40 437.375
NOAA 15 24 Jan 18:43:03 18:47:48 34° 262° (W) 18:52:37 137.62
Cubesat XI-IV 24 Jan 18:51:24 18:56:02 30° 263° (W) 19:00:41 437.490
HO-68 24 Jan 18:55:59 19:03:01 60° 70° (ENE) 19:10:05 435.675
CUTE 1.7 + AOD 2 24 Jan 18:56:16 19:00:14 40° 74° (ENE) 19:04:15 437.475
CINEMA 3 24 Jan 18:57:41 19:02:04 83° 79° (ENE) 19:06:19 145.822/145.860
CUBEBUG 2 24 Jan 19:20:56 19:24:33 30° 72° (ENE) 19:28:11 437.445
COMPASS 1 24 Jan 19:23:42 19:27:30 35° 73° (ENE) 19:31:22 437.405
CANX-2 24 Jan 19:26:14 19:30:29 72° 260° (W) 19:34:45 2200.000
SEEDS 24 Jan 19:27:12 19:31:21 62° 76° (ENE) 19:35:34 437.485
AAUSAT CUBESAT 2 24 Jan 19:30:09 19:33:51 31° 72° (ENE) 19:37:33 437.432
NOAA 18 24 Jan 19:34:54 19:39:09 23° 264° (W) 19:43:24 137.9125
UWE-3 24 Jan 19:39:10 19:42:46 30° 72° (ENE) 19:46:23 435.000/436.395/437.385
ZACube-1 24 Jan 19:47:26 19:50:36 22° 70° (ENE) 19:53:47 437.345
STRAND 1 24 Jan 19:47:52 19:53:02 79° 103° (ESE) 19:58:11 437.568
ISS 24 Jan 19:49:41 19:52:34 29° 132° (SE) 19:55:28 145.825
AIST 2 24 Jan 19:52:05 19:54:30 15° 312° (NW) 19:56:57 435.215
Cosmos 2499 24 Jan 19:56:25 20:04:46 68° 278° (W) 20:12:31 435.465 / 435.565
Oscar 11 24 Jan 20:13:48 20:17:47 38° 73° (ENE) 20:21:48 145.826/435.025
GONETS M04 24 Jan 20:28:56 20:37:25 56° 281° (W) 20:46:01
CUTE 1.7 + AOD 2 24 Jan 20:33:58 20:36:13 14° 268° (W) 20:38:29 437.475
HO-68 24 Jan 20:45:43 20:51:05 22° 266° (W) 20:56:29 435.675
PRISM 24 Jan 20:50:59 20:53:21 15° 94° (E) 20:55:43 437.425
HUMSAT D 24 Jan 20:51:42 20:54:24 17° 68° (ENE) 20:57:07 437.325/437.525
FUNcube-1 24 Jan 20:56:33 21:00:35 57° 260° (W) 21:04:42 145.935
CUBEBUG 2 24 Jan 20:58:25 21:01:12 17° 266° (W) 21:04:00 437.445
COMPASS 1 24 Jan 21:00:35 21:03:08 16° 267° (W) 21:05:42 437.405
AAUSAT CUBESAT 2 24 Jan 21:06:32 21:09:19 17° 266° (W) 21:12:09 437.432
UWE-3 24 Jan 21:16:28 21:19:15 17° 266° (W) 21:22:04 435.000/436.395/437.385
ZACube-1 24 Jan 21:23:21 21:26:44 25° 264° (W) 21:30:10 437.345
AO-85 24 Jan 21:23:46 21:26:55 23° 53° (NE) 21:30:04 145.980
ISS 24 Jan 21:26:20 21:29:02 24° 327° (NNW) 21:31:46 145.825
STRAND 1 24 Jan 21:29:57 21:31:29 11° 298° (WNW) 21:33:01 437.568
ANTELSAT 24 Jan 21:35:22 21:38:19 17° 94° (E) 21:41:16 437.575/2403.000
JAS-2 24 Jan 21:37:25 21:38:49 11° 88° (E) 21:40:13 435.910
DELFI C3 24 Jan 21:38:56 21:42:53 62° 259° (W) 21:46:52 145.870
RS-15 24 Jan 21:48:22 21:58:32 36° 105° (ESE) 22:09:03 29.354- 29.394
Oscar 11 24 Jan 21:51:30 21:54:02 15° 267° (W) 21:56:36 145.826/435.025
BY70-1 24 Jan 22:24:56 22:27:51 43° 74° (ENE) 22:30:57 436.1900
PRISM 24 Jan 22:25:01 22:28:44 34° 288° (WNW) 22:32:26 437.425
HUMSAT D 24 Jan 22:26:02 22:29:43 32° 263° (W) 22:33:28 437.325/437.525
UNISAT 6 24 Jan 22:42:18 22:46:49 81° 284° (WNW) 22:51:25 437.425
PHONESAT 2.4 24 Jan 22:43:30 22:44:53 15° 148° (SSE) 22:46:17 2401.200-2431.200
SPROUT 24 Jan 22:47:11 22:48:00 10° 65° (ENE) 22:48:49 437.525
VELOX 1 24 Jan 22:53:07 22:56:14 19° 68° (ENE) 22:59:20 145.980
TIGRISAT 24 Jan 22:54:08 22:58:35 64° 285° (WNW) 23:03:07 435.000
ESTCUBE 1 24 Jan 23:01:46 23:06:16 70° 76° (ENE) 23:10:48 437.505/2401.250
AO-85 24 Jan 23:04:04 23:07:12 23° 248° (WSW) 23:10:22 145.980
DX 1 24 Jan 23:09:51 23:11:56 13° 65° (ENE) 23:14:01 434.975-435.025
QB50P1 24 Jan 23:10:11 23:12:48 16° 94° (E) 23:15:24 145.935-145.965
ANTELSAT 24 Jan 23:10:54 23:15:05 39° 287° (WNW) 23:19:21 437.575/2403.000
POLYITAN 1 24 Jan 23:15:37 23:18:39 19° 95° (E) 23:21:40 437.675
QB50P2 24 Jan 23:16:53 23:20:07 21° 95° (E) 23:23:20 145.880/145.840
JAS-2 24 Jan 23:17:07 23:24:39 71° 102° (ESE) 23:32:30 435.910
CUBEBUG 1 24 Jan 23:25:09 23:29:33 74° 75° (ENE) 23:33:56 437.445
50 SAT 24 Jan 23:31:52 23:35:06 33° 73° (ENE) 23:38:20 437.505
POPSAT HIP 1 24 Jan 23:36:37 23:40:26 32° 98° (E) 23:44:15 437.405
DUCHIFAT 1 24 Jan 23:41:06 23:44:51 31° 97° (E) 23:48:36 145.980
PCSat 24 Jan 23:44:29 23:49:52 78° 115° (ESE) 23:55:18 145.827
NANOSAT C BR1 24 Jan 23:49:07 23:53:09 43° 99° (E) 23:57:10 145.865
BEESAT 2 24 Jan 23:54:05 23:56:16 14° 48° (NE) 23:58:27 435.950
AISAT 24 Jan 23:54:48 23:59:14 79° 257° (WSW) 00:03:42 437.250
AIST 1 24 Jan 23:55:36 23:58:17 16° 74° (ENE) 00:00:57
BUGSAT 1 24 Jan 23:56:24 23:58:44 15° 94° (E) 00:01:04 437.445
RS-15 24 Jan 23:58:35 00:10:16 62° 305° (NW) 00:22:30 29.354- 29.394
YUBILEINY 24 Jan 23:59:09 00:05:58 24° 70° (ENE) 00:12:41 435.215
PHONESAT 2.4 25 Jan 00:16:14 00:18:23 54° 342° (NNW) 00:20:34 2401.200-2431.200
SPROUT 25 Jan 00:19:12 00:23:23 58° 260° (W) 00:27:35 437.525
VELOX 1 25 Jan 00:28:23 00:32:24 34° 262° (W) 00:36:27 145.980
UKube-1 25 Jan 00:32:17 00:36:36 87° 79° (E) 00:40:57 .
BEESAT 3 25 Jan 00:34:26 00:38:27 89° 63° (ENE) 00:42:25 437.485
DX 1 25 Jan 00:43:27 00:47:40 48° 260° (W) 00:51:54 434.975-435.025
QB50P1 25 Jan 00:44:47 00:48:39 35° 288° (WNW) 00:52:30 145.935-145.965
Cosmos 2491 25 Jan 00:46:52 00:53:47 28° 83° (E) 01:00:43 435.465 / 435.565
POLYITAN 1 25 Jan 00:50:43 00:54:26 30° 289° (WNW) 00:58:09 437.675
QB50P2 25 Jan 00:52:16 00:55:52 27° 289° (WNW) 00:59:26 145.880/145.840
JAS-2 25 Jan 01:03:30 01:08:59 23° 297° (WNW) 01:14:42 435.910
50 SAT 25 Jan 01:07:06 01:08:23 12° 267° (W) 01:09:41 437.505
POPSAT HIP 1 25 Jan 01:13:04 01:15:56 18° 292° (WNW) 01:18:49 437.405
DUCHIFAT 1 25 Jan 01:17:22 01:20:16 19° 292° (WNW) 01:23:12 145.980
Gurwin Techsat 1B 25 Jan 01:20:44 01:24:25 19° 94° (E) 01:28:05 435.225
BEESAT 25 Jan 01:22:53 01:26:04 18° 66° (ENE) 01:29:17 436.000
SWISSCUBE 25 Jan 01:24:39 01:28:12 21° 67° (ENE) 01:31:46 437.505
NANOSAT C BR1 25 Jan 01:26:19 01:28:27 14° 293° (WNW) 01:30:36 145.865
TISAT 1 25 Jan 01:29:09 01:33:18 70° 259° (WSW) 01:37:28 437.305
BEESAT 2 25 Jan 01:30:24 01:34:19 50° 245° (WSW) 01:38:12 435.950
BUGSAT 1 25 Jan 01:30:28 01:34:10 35° 287° (WNW) 01:37:53 437.445
PCSat 25 Jan 01:30:50 01:33:52 15° 312° (NW) 01:36:55 145.827
AIST 1 25 Jan 01:32:08 01:35:57 32° 269° (W) 01:39:43
PHONESAT 2.4 25 Jan 01:50:31 01:52:19 21° 357° (N) 01:54:08 2401.200-2431.200
Cosmos 2504 25 Jan 01:53:33 02:00:48 70° 82° (E) 02:07:55 435.465 / 435.565
YUBILEINY 25 Jan 01:54:41 02:03:22 65° 268° (W) 02:11:57 435.215
Oscar 19 25 Jan 02:04:18 02:09:29 81° 284° (WNW) 02:14:36 437.125/150
MOZHAYETS 4 25 Jan 02:10:59 02:13:46 16° 66° (ENE) 02:16:33
RS-15 25 Jan 02:17:29 02:26:03 21° 333° (NNW) 02:34:47 29.354- 29.394
ISS 25 Jan 02:20:21 02:22:15 14° 27° (NNE) 02:24:08 145.825
ITUPSAT 1 25 Jan 02:27:30 02:32:16 87° 75° (ENE) 02:37:04 437.325
CUSAT 1 25 Jan 02:30:10 02:35:21 52° 91° (E) 02:41:59 437.405
AIST 2 25 Jan 02:36:43 02:39:19 16° 49° (NE) 02:41:54 435.215
M-CUBED/EXP-1 PRIME 25 Jan 02:40:07 02:42:34 15° 64° (ENE) 02:44:57 437.505
Cosmos 2491 25 Jan 02:41:33 02:50:01 56° 281° (W) 02:58:34 435.465 / 435.565
AO-7 25 Jan 02:47:53 02:54:00 22° 95° (E) 03:00:05 29.400- 29.500
ITAMSAT 1 25 Jan 02:58:42 03:03:20 31° 97° (E) 03:07:56 435.822/435.867
BEESAT 25 Jan 02:59:02 03:03:30 41° 261° (W) 03:08:00 436.000
Gurwin Techsat 1B 25 Jan 02:59:28 03:04:33 46° 288° (WNW) 03:09:35 435.225
SWISSCUBE 25 Jan 03:01:25 03:05:44 34° 262° (W) 03:10:05 437.505
AUBIESAT-1 25 Jan 03:11:10 03:14:40 27° 68° (ENE) 03:18:00 437.475
CUBESAT XI-V 25 Jan 03:12:31 03:13:28 11° 63° (ENE) 03:14:25 437.345
PHONESAT 2.4 25 Jan 03:24:16 03:26:20 34° 14° (NNE) 03:28:23 2401.200-2431.200
MOZHAYETS 4 25 Jan 03:46:10 03:50:31 43° 261° (W) 03:54:54
KKS-1 25 Jan 03:48:06 03:52:27 57° 74° (ENE) 03:56:48 437.445
Cosmos 2504 25 Jan 03:49:08 03:53:15 16° 279° (W) 03:57:21 435.465 / 435.565
ISS 25 Jan 03:55:48 03:59:02 70° 224° (SW) 04:02:15 145.825
M-CUBED/EXP-1 PRIME 25 Jan 04:12:41 04:16:46 40° 256° (WSW) 04:20:35 437.505
DANDE 25 Jan 04:12:47 04:16:47 58° 283° (WNW) 04:22:13 436.750
CUSAT 1 25 Jan 04:13:33 04:17:52 21° 295° (WNW) 04:22:56 437.405
AIST 2 25 Jan 04:13:56 04:18:03 49° 245° (WSW) 04:22:07 435.215
STARS 25 Jan 04:26:42 04:31:03 69° 75° (ENE) 04:35:23 437.465
ITAMSAT 1 25 Jan 04:38:17 04:42:38 27° 292° (WNW) 04:46:59 435.822/435.867
BRITE-PL 25 Jan 04:38:32 04:42:15 24° 94° (E) 04:45:45 437.365/2234.400
AO-7 25 Jan 04:39:01 04:47:19 70° 291° (WNW) 04:55:33 29.400- 29.500
RS-15 25 Jan 04:39:03 04:45:44 15° 11° (N) 04:52:21 29.354- 29.394
CUBESAT XI-V 25 Jan 04:45:29 04:50:10 72° 258° (WSW) 04:54:54 437.345
AUBIESAT-1 25 Jan 04:45:48 04:48:59 21° 258° (WSW) 04:52:03 437.475
O/OREOS (USA 219) 25 Jan 04:48:50 04:52:33 26° 103° (ESE) 04:56:16 437.305
HORYU 2 25 Jan 04:52:55 04:55:07 13° 93° (E) 04:57:18 437.375
PHONESAT 2.4 25 Jan 04:57:59 04:59:59 29° 208° (SSW) 05:01:58 2401.200-2431.200
NOAA 15 25 Jan 05:23:53 05:25:35 11° 91° (E) 05:27:17 137.62
KKS-1 25 Jan 05:28:22 05:29:18 11° 268° (W) 05:30:15 437.445
Cubesat XI-IV 25 Jan 05:32:49 05:35:36 14° 92° (E) 05:38:23 437.490
Cosmos 2499 25 Jan 05:51:46 05:58:01 33° 75° (ENE) 06:04:16 435.465 / 435.565
SO-50 25 Jan 05:51:55 05:55:43 24° 111° (ESE) 05:59:28 436.795
GOMX 1 25 Jan 05:52:58 05:57:12 61° 101° (E) 06:01:17 467.674
LilacSat-2 25 Jan 06:03:00 06:06:26 30° 97° (E) 06:09:53 437.200
DOVE 4 25 Jan 06:05:20 06:08:55 28° 97° (E) 06:12:31 437.250
BRITE-PL 25 Jan 06:16:52 06:20:40 25° 291° (WNW) 06:24:14 437.365/2234.400
NOAA 18 25 Jan 06:18:53 06:22:59 21° 95° (E) 06:27:05 137.9125
CUTE-I 25 Jan 06:25:48 06:31:00 50° 100° (E) 06:36:12 437.470
HORYU 2 25 Jan 06:27:34 06:31:51 47° 287° (WNW) 06:36:08 437.375
O/OREOS (USA 219) 25 Jan 06:28:12 06:31:51 24° 298° (WNW) 06:35:31 437.305
HO-68 25 Jan 06:30:52 06:32:52 11° 90° (E) 06:34:52 435.675
AO-7 25 Jan 06:34:52 06:38:33 14° 309° (NW) 06:42:15 29.400- 29.500
GONETS M04 25 Jan 06:42:30 06:51:17 65° 80° (E) 07:00:03
RS-15 25 Jan 06:52:22 07:03:34 37° 44° (NE) 07:14:21 29.354- 29.394
CINEMA 3 25 Jan 06:55:19 06:58:45 23° 96° (E) 07:02:16 145.822/145.860
NOAA 15 25 Jan 07:00:31 07:05:49 72° 286° (WNW) 07:11:04 137.62
STRAND 1 25 Jan 07:00:43 07:05:47 83° 76° (ENE) 07:10:55 437.568
Cubesat XI-IV 25 Jan 07:10:45 07:16:01 61° 287° (WNW) 07:21:17 437.490
CANX-2 25 Jan 07:14:40 07:18:10 24° 95° (E) 07:21:37 2200.000
SEEDS 25 Jan 07:15:42 07:17:40 13° 92° (E) 07:19:37 437.485
SO-50 25 Jan 07:31:43 07:36:00 33° 306° (NW) 07:40:14 436.795
LilacSat-2 25 Jan 07:38:04 07:40:28 16° 291° (WNW) 07:42:51 437.200
DOVE 4 25 Jan 07:43:31 07:46:26 19° 291° (WNW) 07:49:21 437.250
Cosmos 2499 25 Jan 07:44:46 07:51:03 36° 272° (W) 07:57:25 435.465 / 435.565
NOAA 18 25 Jan 07:58:39 08:03:46 42° 290° (WNW) 08:08:53 137.9125
CUTE-I 25 Jan 08:07:02 08:10:37 19° 295° (WNW) 08:14:12 437.470
HO-68 25 Jan 08:14:15 08:21:28 83° 105° (ESE) 08:28:37 435.675
CUTE 1.7 + AOD 2 25 Jan 08:19:22 08:23:37 65° 284° (WNW) 08:27:50 437.475
CINEMA 3 25 Jan 08:32:17 08:35:49 25° 289° (WNW) 08:39:26 145.822/145.860
PCSat 25 Jan 08:35:34 08:40:28 33° 56° (NE) 08:45:20 145.827
GONETS M04 25 Jan 08:40:46 08:47:17 24° 278° (W) 08:53:50
COMPASS 1 25 Jan 08:44:13 08:48:25 80° 284° (WNW) 08:52:35 437.405
FUNcube-1 25 Jan 08:47:06 08:51:08 32° 97° (E) 08:55:11 145.935
SEEDS 25 Jan 08:49:30 08:53:32 43° 286° (WNW) 08:57:32 437.485
CUBEBUG 2 25 Jan 08:49:49 08:54:15 75° 283° (WNW) 08:58:49 437.445
AAUSAT CUBESAT 2 25 Jan 08:49:52 08:54:04 89° 92° (E) 08:58:12 437.432
CANX-2 25 Jan 08:50:25 08:53:54 24° 290° (WNW) 08:57:22 2200.000
RS-15 25 Jan 09:04:48 09:16:56 69° 247° (WSW) 09:28:31 29.354- 29.394
UWE-3 25 Jan 09:06:43 09:11:11 78° 283° (WNW) 09:15:45 435.000/436.395/437.385
PRISM 25 Jan 09:10:33 09:14:43 77° 258° (WSW) 09:18:53 437.425
ZACube-1 25 Jan 09:13:05 09:17:33 73° 102° (ESE) 09:22:05 437.345
DELFI C3 25 Jan 09:19:47 09:22:43 19° 95° (E) 09:25:36 145.870
JAS-2 25 Jan 09:29:00 09:32:43 19° 62° (ENE) 09:36:41 435.910
UNISAT 6 25 Jan 09:38:13 09:42:23 59° 75° (ENE) 09:46:35 437.425
Oscar 11 25 Jan 09:39:26 09:43:46 67° 284° (WNW) 09:48:04 145.826/435.025
TIGRISAT 25 Jan 09:49:46 09:53:59 76° 77° (ENE) 09:58:14 435.000
HO-68 25 Jan 10:03:57 10:08:17 17° 302° (WNW) 10:12:36 435.675
ANTELSAT 25 Jan 10:06:29 10:10:41 62° 259° (W) 10:14:55 437.575/2403.000
QB50P2 25 Jan 10:08:38 10:09:55 11° 65° (ENE) 10:11:13 145.880/145.840
HUMSAT D 25 Jan 10:11:34 10:15:44 47° 99° (E) 10:19:52 437.325/437.525
PCSat 25 Jan 10:19:05 10:23:44 30° 252° (WSW) 10:28:22 145.827
FUNcube-1 25 Jan 10:23:52 10:27:07 20° 291° (WNW) 10:30:25 145.935
POPSAT HIP 1 25 Jan 10:27:08 10:29:51 17° 68° (ENE) 10:32:35 437.405
DUCHIFAT 1 25 Jan 10:31:04 10:33:38 16° 67° (ENE) 10:36:12 145.980
NANOSAT C BR1 25 Jan 10:38:51 10:42:03 22° 69° (ENE) 10:45:16 145.865
DELFI C3 25 Jan 10:54:11 10:57:27 25° 289° (WNW) 11:00:41 145.870
ESTCUBE 1 25 Jan 10:58:10 11:01:19 18° 94° (E) 11:04:26 437.505/2401.250
BY70-1 25 Jan 11:01:44 11:04:26 30° 97° (E) 11:06:56 436.1900
JAS-2 25 Jan 11:11:59 11:17:11 52° 261° (W) 11:22:59 435.910
CUBEBUG 1 25 Jan 11:17:49 11:20:34 16° 94° (E) 11:23:18 437.445
RS-15 25 Jan 11:23:15 11:26:54 12° 265° (W) 11:30:31 29.354- 29.394
QB50P1 25 Jan 11:33:34 11:37:45 72° 259° (W) 11:41:56 145.935-145.965
AO-85 25 Jan 11:35:40 11:38:53 18° 111° (ESE) 11:41:59 145.980
POLYITAN 1 25 Jan 11:39:37 11:43:44 60° 259° (W) 11:47:53 437.675
QB50P2 25 Jan 11:41:07 11:45:12 53° 260° (W) 11:49:19 145.880/145.840
Oscar 19 25 Jan 11:42:38 11:44:34 12° 62° (ENE) 11:46:29 437.125/150
AISAT 25 Jan 11:48:22 11:51:53 23° 96° (E) 11:55:23 437.250
HUMSAT D 25 Jan 11:48:49 11:50:53 13° 294° (WNW) 11:52:57 437.325/437.525
